Regional Weather Roundup
Issued by NWS State College, PA

Home | Current Version | Previous Version | Text Only | Print | Product List | Glossary On
Versions: 1 2 3 4 5 6 7 8 9 10 11 12 13 14 15 16 17 18 19 20 21 22 23 24 25 26 27 28 29 30 31 32 33 34 35 36 37 38 39 40 41 42 43 44 45 46 47 48 49 50
000
ASUS41 KCTP 172203
RWRCTP

REGIONAL WEATHER ROUNDUP
NATIONAL WEATHER SERVICE STATE COLLEGE PA
600 PM EDT TUE OCT 17 2017

Note: "fair" indicates few or no clouds below 12,000 feet with no
significant weather and/or obstructions to visibility.

* = STATION THAT DOES NOT REPORT PRECIPITATION /E.G. RAIN...SNOW...ETC/
    THUNDER OR FOG.

PAZ002>004-007>009-013>016-020>023-029>032-172300-
WESTERN PENNSYLVANIA

CITY           SKY/WX    TMP DP  RH WIND       PRES   REMARKS
ERIE           CLEAR     63  39  41 SW13      30.16F
MEADVILLE      CLEAR     59  38  45 SW9       30.21S
FRANKLIN*      CLEAR     58  38  47 SW9       30.23S
NEW CASTLE     FAIR      61  38  42 SW7       30.24
BEAVER COUNTY  CLEAR     61  39  44 SW8       30.25S
BUTLER*        CLEAR     60  38  43 SW8       30.24F
PITTSBURGH INT PTCLDY    61  37  41 SW10      30.24F
PITTSBURGH     CLEAR     60  36  40 SW8       30.24F
INDIANA*       CLEAR     57  41  54 SW7       30.27F
LATROBE        CLEAR     59  39  47 S12       30.27F
WASHINGTON CO* CLEAR     60  38  43 SW6       30.28F
$$

PAZ004>006-010>012-017>019-024>028-033>037-041-042-045-046-049>053-172300-
CENTRAL PENNSYLVANIA

CITY           SKY/WX    TMP DP  RH WIND       PRES   REMARKS
BRADFORD       CLEAR     56  36  47 VRB5      30.20S
DUBOIS         CLEAR     56  36  47 SW10      30.22F
CLEARFIELD     CLEAR     58  37  45 SW8       30.23F
JOHNSTOWN      CLEAR     54  36  50 W8        30.25F
ALTOONA        CLEAR     61  37  41 W6        30.25S
STATE COLLEGE  CLEAR     57  37  47 SW8       30.23F
WILLIAMSPORT   CLEAR     58  42  55 CALM      30.21S
SELINSGROVE    CLEAR     59  36  42 S5        30.25S
FT INDIANTOWN  CLEAR     57  35  42 SW7       30.25F
CAPITAL CITY   CLEAR     60  33  36 S5        30.26F
HARRISBURG     CLEAR     58  44  60 S3        30.25F
YORK           CLEAR     57  38  48 S5        30.27F
$$

PAZ038>040-043-044-047-048-054-055-060>062-067>071-172300-
EASTERN PENNSYLVANIA

CITY           SKY/WX    TMP DP  RH WIND       PRES   REMARKS
SCRANTON       CLEAR     56  28  34 SW9       30.24R
MOUNT POCONO   CLEAR     51  26  37 W7        30.23S
ALLENTOWN      CLEAR     56  34  43 SW8       30.25S
QUAKERTOWN*    CLEAR     57  32  38 SW5       30.27S
READING        CLEAR     57  35  43 SW5       30.25F
LANCASTER      CLEAR     57  34  41 SW7       30.26F
COATESVILLE    CLEAR     55  32  41 CALM      30.29S
POTTSTOWN      CLEAR     56  34  43 SW5       30.28S
BLUE BELL      CLEAR     52  37  58 CALM      30.28S
DOYLESTOWN     CLEAR     56  33  42 SW6       30.26S
WILLOW GROVE   NOT AVBL
NORTH PHILA    CLEAR     59  32  36 W6        30.29S
PHILADELPHIA   CLEAR     60  32  34 SW8       30.28S
$$




USA.gov is the U.S. government's official web portal to all federal, state and local government web resources and services.